Time,TemperatureF,DewpointF,PressureIn,WindDirection,WindDirectionDegrees,WindSpeedMPH,WindSpeedGustMPH,Humidity,HourlyPrecipIn,Conditions,Clouds,dailyrainin,SoftwareType,DateUTC
2017-04-29 00:10:00,66.1,14.0,29.68,NNW,345,5.0,14.0,13,0.00,,,0.00,weatherlink.com 1.10,2017-04-29 07:10:00,
2017-04-29 00:25:00,65.6,15.0,29.68,NW,322,1.0,9.0,14,0.00,,,0.00,weatherlink.com 1.10,2017-04-29 07:25:00,
2017-04-29 00:40:00,65.1,15.0,29.68,NNW,327,1.0,8.0,14,0.00,,,0.00,weatherlink.com 1.10,2017-04-29 07:40:00,
2017-04-29 00:56:00,64.7,16.0,29.69,NNW,333,3.0,8.0,15,0.00,,,0.00,weatherlink.com 1.10,2017-04-29 07:56:00,
2017-04-29 01:10:00,64.2,15.0,29.68,NNW,328,2.0,4.0,15,0.00,,,0.00,weatherlink.com 1.10,2017-04-29 08:10:00,
2017-04-29 01:25:00,64.0,15.0,29.69,North,360,10.0,10.0,15,0.00,,,0.00,weatherlink.com 1.10,2017-04-29 08:25:00,
2017-04-29 01:41:00,63.8,15.0,29.69,North,350,5.0,9.0,15,0.00,,,0.00,weatherlink.com 1.10,2017-04-29 08:41:00,
2017-04-29 01:56:00,63.6,16.0,29.69,NW,316,6.0,8.0,16,0.00,,,0.00,weatherlink.com 1.10,2017-04-29 08:56:00,
2017-04-29 02:11:00,63.3,16.0,29.70,NNW,334,6.0,8.0,16,0.00,,,0.00,weatherlink.com 1.10,2017-04-29 09:11:00,
2017-04-29 02:26:00,63.1,16.0,29.70,NNW,339,3.0,9.0,16,0.00,,,0.00,weatherlink.com 1.10,2017-04-29 09:26:00,
2017-04-29 02:41:00,62.9,17.0,29.71,North,8,4.0,9.0,17,0.00,,,0.00,weatherlink.com 1.10,2017-04-29 09:41:00,
2017-04-29 02:56:00,62.6,17.0,29.71,NNE,23,2.0,9.0,17,0.00,,,0.00,weatherlink.com 1.10,2017-04-29 09:56:00,
2017-04-29 03:13:00,62.1,17.0,29.72,NNW,333,5.0,7.0,17,0.00,,,0.00,weatherlink.com 1.10,2017-04-29 10:13:00,
2017-04-29 03:26:00,61.9,18.0,29.72,NW,321,0.0,6.0,18,0.00,,,0.00,weatherlink.com 1.10,2017-04-29 10:26:00,
2017-04-29 03:41:00,61.5,17.0,29.73,NW,324,0.0,7.0,18,0.00,,,0.00,weatherlink.com 1.10,2017-04-29 10:41:00,
2017-04-29 03:56:00,60.9,18.0,29.73,NW,323,0.0,2.0,19,0.00,,,0.00,weatherlink.com 1.10,2017-04-29 10:56:00,
2017-04-29 04:11:00,60.4,18.0,29.74,East,82,0.0,2.0,19,0.00,,,0.00,weatherlink.com 1.10,2017-04-29 11:11:00,
2017-04-29 04:26:00,59.7,18.0,29.74,NW,314,0.0,4.0,20,0.00,,,0.00,weatherlink.com 1.10,2017-04-29 11:26:00,
2017-04-29 04:41:00,59.4,18.0,29.75,NNW,342,0.0,2.0,20,0.00,,,0.00,weatherlink.com 1.10,2017-04-29 11:41:00,
2017-04-29 04:56:00,59.5,20.0,29.75,NW,306,1.0,2.0,22,0.00,,,0.00,weatherlink.com 1.10,2017-04-29 11:56:00,
2017-04-29 05:11:00,58.0,20.0,29.76,South,182,0.0,2.0,23,0.00,,,0.00,weatherlink.com 1.10,2017-04-29 12:11:00,
2017-04-29 05:26:00,57.9,20.0,29.77,South,190,0.0,3.0,23,0.00,,,0.00,weatherlink.com 1.10,2017-04-29 12:26:00,
2017-04-29 05:41:00,58.5,21.0,29.77,NNW,333,1.0,4.0,23,0.00,,,0.00,weatherlink.com 1.10,2017-04-29 12:41:00,
2017-04-29 05:56:00,58.6,21.0,29.78,NW,304,4.0,5.0,23,0.00,,,0.00,weatherlink.com 1.10,2017-04-29 12:56:00,
2017-04-29 06:11:00,58.7,21.0,29.79,NNW,338,2.0,3.0,23,0.00,,,0.00,weatherlink.com 1.10,2017-04-29 13:11:00,
2017-04-29 06:26:00,60.1,21.0,29.79,North,354,1.0,4.0,22,0.00,,,0.00,weatherlink.com 1.10,2017-04-29 13:26:00,
2017-04-29 06:42:00,61.2,22.0,29.80,NW,319,0.0,5.0,22,0.00,,,0.00,weatherlink.com 1.10,2017-04-29 13:42:00,
2017-04-29 06:56:00,62.1,22.0,29.81,North,352,1.0,3.0,21,0.00,,,0.00,weatherlink.com 1.10,2017-04-29 13:56:00,
2017-04-29 07:12:00,63.2,21.0,29.81,West,278,3.0,3.0,20,0.00,,,0.00,weatherlink.com 1.10,2017-04-29 14:12:00,
2017-04-29 07:27:00,64.5,26.0,29.81,WSW,257,0.0,3.0,23,0.00,,,0.00,weatherlink.com 1.10,2017-04-29 14:27:00,
2017-04-29 07:42:00,65.0,22.0,29.82,NW,324,2.0,5.0,19,0.00,,,0.00,weatherlink.com 1.10,2017-04-29 14:42:00,
2017-04-29 07:57:00,65.2,22.0,29.82,NNW,328,4.0,8.0,19,0.00,,,0.00,weatherlink.com 1.10,2017-04-29 14:57:00,
2017-04-29 08:12:00,65.6,22.0,29.83,NW,324,4.0,6.0,19,0.00,,,0.00,weatherlink.com 1.10,2017-04-29 15:12:00,
2017-04-29 08:27:00,66.5,22.0,29.83,NW,321,1.0,9.0,18,0.00,,,0.00,weatherlink.com 1.10,2017-04-29 15:27:00,
2017-04-29 08:42:00,66.9,23.0,29.84,NE,38,4.0,8.0,19,0.00,,,0.00,weatherlink.com 1.10,2017-04-29 15:42:00,
2017-04-29 08:57:00,68.3,23.0,29.84,North,349,1.0,7.0,18,0.00,,,0.00,weatherlink.com 1.10,2017-04-29 15:57:00,
2017-04-29 09:12:00,70.2,23.0,29.85,East,98,5.0,6.0,17,0.00,,,0.00,weatherlink.com 1.10,2017-04-29 16:12:00,
2017-04-29 09:28:00,70.5,24.0,29.84,ENE,59,0.0,5.0,17,0.00,,,0.00,weatherlink.com 1.10,2017-04-29 16:28:00,
2017-04-29 09:42:00,70.6,24.0,29.85,East,83,2.0,8.0,17,0.00,,,0.00,weatherlink.com 1.10,2017-04-29 16:42:00,
2017-04-29 09:57:00,71.1,24.0,29.85,North,11,1.0,7.0,17,0.00,,,0.00,weatherlink.com 1.10,2017-04-29 16:57:00,
2017-04-29 10:12:00,71.8,23.0,29.85,North,349,0.0,6.0,16,0.00,,,0.00,weatherlink.com 1.10,2017-04-29 17:12:00,
2017-04-29 10:27:00,72.9,24.0,29.85,WSW,243,2.0,4.0,16,0.00,,,0.00,weatherlink.com 1.10,2017-04-29 17:27:00,
2017-04-29 10:42:00,72.9,23.0,29.85,ENE,58,5.0,8.0,15,0.00,,,0.00,weatherlink.com 1.10,2017-04-29 17:42:00,
2017-04-29 10:57:00,73.1,23.0,29.86,North,352,4.0,11.0,15,0.00,,,0.00,weatherlink.com 1.10,2017-04-29 17:57:00,
2017-04-29 11:12:00,73.9,22.0,29.85,West,267,7.0,7.0,14,0.00,,,0.00,weatherlink.com 1.10,2017-04-29 18:12:00,
2017-04-29 11:27:00,74.4,20.0,29.85,ENE,59,0.0,9.0,13,0.00,,,0.00,weatherlink.com 1.10,2017-04-29 18:27:00,
2017-04-29 11:42:00,74.9,21.0,29.85,NNW,335,3.0,11.0,13,0.00,,,0.00,weatherlink.com 1.10,2017-04-29 18:42:00,
2017-04-29 11:57:00,74.7,24.0,29.84,SSE,150,0.0,9.0,15,0.00,,,0.00,weatherlink.com 1.10,2017-04-29 18:57:00,
2017-04-29 12:12:00,75.3,24.0,29.84,NNW,335,7.0,13.0,15,0.00,,,0.00,weatherlink.com 1.10,2017-04-29 19:12:00,
2017-04-29 12:27:00,76.1,23.0,29.83,NNW,337,4.0,10.0,14,0.00,,,0.00,weatherlink.com 1.10,2017-04-29 19:27:00,
2017-04-29 12:42:00,77.0,24.0,29.83,NNE,15,6.0,11.0,14,0.00,,,0.00,weatherlink.com 1.10,2017-04-29 19:42:00,
2017-04-29 12:57:00,76.8,22.0,29.82,NW,326,2.0,12.0,13,0.00,,,0.00,weatherlink.com 1.10,2017-04-29 19:57:00,
2017-04-29 13:12:00,76.7,22.0,29.82,NW,323,4.0,13.0,13,0.00,,,0.00,weatherlink.com 1.10,2017-04-29 20:12:00,
2017-04-29 13:27:00,77.0,21.0,29.82,NW,322,8.0,10.0,12,0.00,,,0.00,weatherlink.com 1.10,2017-04-29 20:27:00,
2017-04-29 13:42:00,78.0,23.0,29.82,West,274,4.0,6.0,13,0.00,,,0.00,weatherlink.com 1.10,2017-04-29 20:42:00,
2017-04-29 13:57:00,77.6,21.0,29.81,NW,308,3.0,13.0,12,0.00,,,0.00,weatherlink.com 1.10,2017-04-29 20:57:00,
2017-04-29 14:12:00,77.0,21.0,29.81,NW,319,5.0,12.0,12,0.00,,,0.00,weatherlink.com 1.10,2017-04-29 21:12:00,
2017-04-29 14:27:00,78.2,22.0,29.80,SE,128,2.0,9.0,12,0.00,,,0.00,weatherlink.com 1.10,2017-04-29 21:27:00,